Theta_e
284 284 283 283 282 281 281 281 280 280 280 280 280 280 279 279 279 279 279 278 278 278 278 278 277 277 277 277 276 276 276 275 275 275 275 275 275 275 274 274 274 274 275 274 273 273 273 273 272 272 272 272 272 272 272 272 272 272 272 271 271 271 271 270 269 269 271 273 271 272 272 272 271 272 272 272 273 273 275 274 274 273 274 274 274
283 283 283 283 282 281 281 281 281 280 280 280 279 279 279 279 278 278 278 278 278 278 278 277 277 277 276 276 276 276 275 275 275 275 275 275 274 274 274 274 274 273 274 273 273 273 273 272 272 272 272 272 272 272 272 272 271 271 271 271 270 270 271 269 269 268 268 271 271 272 271 272 271 272 272 272 272 273 273 273 274 274 274 274 274
283 283 283 282 282 281 281 281 280 280 280 279 279 279 278 278 278 278 278 277 277 277 277 277 277 277 276 276 277 276 276 275 276 276 275 275 274 274 275 275 274 274 273 273 273 272 271 271 271 271 271 271 271 271 271 271 271 271 271 271 270 270 271 271 269 267 267 268 271 269 270 271 271 271 272 273 273 273 273 273 274 274 275 275 274
283 283 282 282 282 281 281 281 280 280 279 279 279 278 278 278 278 278 278 277 277 277 277 277 277 277 277 276 276 276 276 276 275 276 275 275 275 274 274 274 274 274 274 273 272 272 271 271 271 271 271 270 270 270 271 271 271 270 270 270 270 270 270 270 271 270 267 267 268 269 271 270 271 272 273 273 273 273 273 274 274 274 274 275 274
283 282 282 282 281 281 281 280 280 280 279 279 278 278 279 279 279 278 278 277 278 278 277 277 277 277 277 276 276 276 276 275 275 275 275 275 275 275 274 274 274 274 273 273 274 272 271 271 271 270 270 270 269 269 270 269 270 270 269 270 270 270 270 271 270 270 268 267 268 270 271 271 272 272 273 272 273 273 273 273 273 274 274 274 275
283 282 282 282 281 281 281 280 280 280 280 279 279 279 279 279 279 278 278 278 278 278 277 277 277 277 277 276 276 276 276 275 275 275 274 275 275 275 274 274 274 273 273 273 273 271 271 271 271 270 270 270 270 270 269 269 269 269 269 269 269 269 269 270 270 270 269 268 268 268 269 270 270 272 273 273 272 271 272 273 272 273 273 273 274
283 282 282 282 281 281 281 281 281 280 280 280 280 280 279 279 279 278 278 278 277 277 277 277 277 277 277 276 276 276 275 275 275 275 274 274 274 274 274 274 273 273 273 272 272 271 271 271 271 271 271 271 270 270 269 269 269 268 269 269 269 268 268 268 269 269 269 268 268 269 269 270 272 271 273 273 273 272 271 270 270 272 273 272 272
283 282 282 282 282 281 282 281 281 281 281 280 280 280 279 279 279 278 278 278 278 278 277 277 277 277 276 276 276 275 275 275 275 274 274 274 274 274 274 274 273 273 272 272 272 271 271 271 271 271 271 271 271 270 270 269 269 269 269 269 269 269 268 267 268 268 267 266 267 267 269 271 272 274 274 273 271 271 272 270 269 270 271 272 271
284 283 283 282 282 282 282 282 282 281 281 280 280 279 279 279 279 278 278 278 278 278 278 277 277 276 276 275 275 275 275 275 274 274 274 274 274 274 274 273 273 273 272 272 271 271 271 271 271 271 271 273 275 274 273 273 270 268 269 269 268 268 266 265 265 265 264 265 267 270 271 271 272 272 271 270 271 270 271 271 271 272 271 270 270
284 284 283 283 283 283 282 282 282 281 281 280 280 280 279 279 279 278 278 278 278 277 277 277 276 276 275 275 275 275 275 275 276 278 277 275 274 274 274 274 273 273 273 272 271 271 271 271 272 274 275 275 276 277 277 277 276 272 270 269 268 267 262 262 262 263 264 265 267 270 270 271 272 272 271 271 272 272 271 271 270 270 269 268 269
284 284 284 284 284 283 282 282 282 281 281 280 280 280 279 279 279 278 278 277 277 277 276 276 276 276 275 275 274 274 274 274 278 280 280 279 275 274 274 273 273 273 273 272 271 272 272 272 271 273 275 275 275 277 278 279 279 279 278 276 274 269 265 263 264 265 265 266 269 270 271 271 272 272 271 272 272 271 271 271 270 269 267 266 264
284 284 284 284 284 283 282 282 281 281 281 280 280 280 279 279 278 278 277 277 277 276 276 276 276 275 275 275 274 274 274 277 280 281 282 281 278 274 274 273 273 273 272 272 272 271 271 271 271 270 271 271 271 273 276 279 280 280 280 279 279 278 276 271 269 268 269 270 271 272 272 272 272 272 272 271 270 271 272 271 270 268 267 266 266
284 284 284 284 283 283 282 282 281 281 281 280 280 280 279 279 278 277 277 277 276 275 276 276 275 275 275 274 274 274 274 278 281 282 283 283 282 277 274 274 273 273 272 272 271 271 270 270 269 270 270 273 273 271 270 270 276 278 278 279 279 279 279 280 279 274 273 272 273 273 273 272 271 271 272 271 273 271 271 269 269 268 268 267 267
284 283 283 283 283 282 282 282 281 281 281 281 280 279 279 278 278 278 278 277 276 276 276 276 276 275 275 274 274 274 274 278 281 283 283 284 284 280 273 273 273 272 272 271 271 270 270 269 268 268 269 270 271 271 270 270 269 269 270 269 269 272 276 278 279 279 278 276 275 272 273 273 272 272 273 274 272 270 269 268 269 267 267 267 267
283 283 282 283 283 282 282 282 281 281 281 281 280 279 279 278 278 278 277 277 276 276 276 276 275 275 275 275 274 274 274 278 281 283 284 284 284 283 274 273 272 272 271 271 271 270 270 270 269 269 269 269 270 271 269 269 267 267 266 266 267 268 268 270 271 272 274 275 275 274 274 274 274 274 274 275 274 273 271 270 269 268 268 267 265
282 283 283 283 283 283 282 282 282 282 281 280 280 279 279 279 278 278 277 277 277 277 276 276 276 275 275 274 274 274 274 279 281 283 284 284 285 283 275 274 272 271 270 271 271 271 270 270 270 269 269 268 271 275 274 269 267 264 264 264 265 266 268 272 274 276 274 274 275 275 275 275 276 276 277 276 274 273 272 270 269 266 263 261 260
282 283 283 283 283 283 283 282 282 281 281 280 279 279 279 278 278 278 277 277 277 276 276 276 276 275 275 274 274 274 274 278 281 282 283 285 284 282 277 275 274 272 272 272 272 271 271 270 270 269 269 268 272 276 277 276 267 265 264 264 265 266 268 271 276 278 279 280 280 280 280 280 280 279 278 278 275 273 269 266 265 260 259 259 260
283 283 283 283 283 283 283 282 282 281 281 280 280 280 280 279 279 279 278 277 277 277 276 276 275 275 275 274 274 274 275 277 281 282 283 284 284 281 278 275 274 274 273 274 273 272 272 273 272 270 269 269 273 276 277 277 272 269 268 268 268 269 270 272 273 275 279 280 280 280 279 279 277 275 275 274 275 274 266 264 263 260 259 259 259
283 283 284 284 283 282 282 282 282 282 281 281 281 280 280 280 279 279 278 278 277 276 275 275 275 275 275 275 276 275 276 277 280 282 283 284 283 281 278 276 275 274 273 273 273 273 272 273 274 273 272 271 275 276 278 277 273 272 271 271 270 270 271 273 273 273 274 274 274 273 273 273 270 268 268 271 272 271 268 266 261 259 259 260 261
284 284 283 283 283 283 283 283 283 282 282 281 281 281 280 279 278 277 277 277 276 276 276 275 275 275 275 274 275 275 275 275 277 281 282 283 284 281 278 276 275 274 273 273 272 272 272 271 273 276 277 277 277 277 278 279 275 272 271 270 270 270 272 272 273 274 273 273 272 271 270 269 268 268 267 266 265 265 265 265 264 262 261 261 261
283 283 283 283 283 283 283 283 282 282 282 281 281 279 279 279 278 277 276 276 276 275 275 274 274 274 274 273 273 273 273 273 273 279 281 282 283 283 279 277 276 275 273 272 272 272 271 271 270 274 276 277 278 279 279 279 279 275 272 271 271 273 275 273 274 276 273 271 269 267 267 266 265 265 264 263 263 263 264 266 265 265 263 260 260
283 283 283 283 282 282 282 282 282 282 281 280 279 278 278 278 278 277 275 274 273 272 270 271 272 272 271 270 269 270 271 273 270 275 279 281 283 284 281 277 276 274 273 272 272 271 271 271 269 271 275 276 277 278 280 280 280 278 276 278 278 278 276 276 273 272 269 267 265 264 262 261 262 261 261 261 261 262 263 263 265 265 265 264 262
283 282 282 282 281 281 281 280 280 280 279 279 278 277 276 275 274 273 273 272 272 271 271 270 270 270 270 270 269 269 269 269 274 272 276 279 281 282 283 281 281 276 273 273 273 272 271 269 269 273 275 276 277 278 279 280 280 279 280 281 281 280 280 272 269 268 266 265 264 263 263 262 261 262 261 261 261 262 262 263 264 264 264 264 265
282 281 281 280 279 279 279 278 278 277 277 277 277 276 274 274 272 272 272 272 271 271 271 270 269 269 270 271 271 270 270 269 272 275 273 276 279 280 281 283 283 278 274 274 273 272 270 269 269 274 276 276 277 278 279 279 278 279 280 281 281 280 275 268 268 266 265 263 263 263 263 263 262 261 261 260 261 262 263 263 263 263 263 263 264
279 278 278 277 277 277 276 276 276 276 276 277 276 275 273 272 272 270 271 271 271 271 271 270 270 270 270 271 272 273 270 268 267 270 275 275 277 278 279 281 282 283 280 276 275 273 275 276 276 276 276 277 278 278 278 278 279 280 280 280 279 276 269 268 266 265 263 263 263 264 262 262 263 263 263 262 262 263 262 260 260 259 260 260 261
277 276 276 276 276 275 275 274 275 275 275 276 276 276 274 273 273 271 271 271 271 271 271 271 270 270 270 272 272 272 269 265 265 265 269 272 274 277 278 279 279 280 280 280 280 280 279 279 279 279 278 277 275 274 274 274 277 278 279 278 277 271 269 267 265 264 265 264 264 263 263 262 261 262 262 261 259 259 258 256 255 257 256 257 257
276 275 275 275 274 275 275 274 273 273 273 273 274 274 274 273 273 271 271 271 271 271 271 270 270 270 270 271 271 269 268 265 265 262 263 264 266 268 271 273 277 278 277 276 277 278 280 280 278 279 278 278 277 277 276 276 275 275 275 274 271 269 268 267 266 266 265 264 263 262 262 261 259 258 258 258 256 257 258 257 255 256 256 257 257
275 274 273 273 273 273 274 271 273 273 273 273 273 272 271 273 273 272 271 271 271 270 270 270 270 270 270 270 268 266 268 266 265 264 263 262 263 264 265 266 267 268 270 272 273 274 275 277 278 278 277 276 276 275 275 274 273 273 272 270 268 267 267 269 268 264 264 264 262 260 258 256 255 256 255 254 256 256 256 256 255 255 256 258 257
272 271 270 271 271 271 273 273 273 273 271 270 271 272 273 272 273 273 270 270 272 272 271 270 270 269 268 268 267 268 268 268 268 271 267 269 266 264 263 264 265 266 269 273 272 271 272 272 272 274 274 274 273 273 272 270 269 269 269 267 264 263 264 264 264 263 262 260 260 260 259 256 256 255 255 254 255 255 255 254 256 256 257 256 257
271 270 270 271 270 269 269 268 267 269 270 270 269 267 270 275 272 270 268 273 276 277 276 270 266 266 268 269 268 270 270 267 275 276 276 276 276 275 273 272 272 269 270 274 274 270 270 269 270 271 272 272 271 271 270 269 268 267 266 267 265 263 262 262 263 264 262 261 260 258 258 256 257 256 254 254 255 254 256 259 256 256 254 254 255
269 268 269 268 268 269 268 267 268 268 268 267 268 268 266 265 276 277 276 274 276 277 278 278 278 276 271 268 269 276 276 277 277 277 277 277 278 278 278 277 277 277 276 272 270 270 269 268 269 270 271 271 271 271 271 269 268 267 267 266 266 265 265 263 263 262 261 260 259 258 257 257 257 255 254 254 254 254 253 254 254 253 252 254 254
271 269 269 267 269 268 267 267 266 266 265 263 266 265 265 266 267 273 277 277 277 277 277 278 279 279 279 276 270 265 272 276 277 277 278 278 278 278 278 279 279 279 279 278 271 268 268 268 268 268 269 269 270 270 270 270 270 269 268 267 267 266 265 264 264 262 260 259 259 257 256 256 255 254 253 253 254 253 252 253 251 252 253 252 254
270 268 267 267 266 267 266 266 266 266 264 264 263 264 265 264 267 267 267 276 277 278 278 278 279 279 279 279 280 277 274 274 276 277 278 278 278 278 278 279 279 279 279 276 273 270 268 267 268 269 269 269 269 269 269 269 269 269 269 268 267 265 264 264 264 261 260 260 258 257 257 255 254 253 254 253 253 252 252 252 251 252 252 253 254
268 267 267 266 266 265 265 265 265 264 265 264 264 264 264 265 266 266 264 263 265 271 275 278 278 279 279 279 279 279 279 279 279 278 278 278 278 278 278 277 278 279 277 274 273 272 270 269 269 269 269 269 269 269 268 268 268 268 267 266 265 264 262 262 261 261 259 260 260 257 256 254 253 252 251 250 251 251 252 253 251 251 252 253 254
262 264 265 265 265 265 264 265 264 262 262 263 263 262 264 262 264 263 263 264 264 265 261 261 269 274 275 276 277 278 278 278 279 279 279 279 278 278 278 275 273 274 274 274 274 273 272 271 270 270 270 269 269 269 268 268 266 265 265 264 263 263 261 260 260 260 258 257 256 255 254 254 251 251 251 251 250 251 251 251 251 252 252 254 254
264 264 263 263 262 262 263 263 263 263 263 262 261 261 261 260 262 260 260 260 260 260 259 258 260 265 270 272 274 276 277 277 277 278 277 278 279 279 274 272 272 272 271 272 272 271 268 267 267 267 267 266 266 265 266 265 265 264 263 263 262 260 259 258 258 257 256 254 253 254 254 251 251 251 250 250 250 251 250 251 251 253 254 254 255
263 262 262 261 260 261 260 259 260 260 263 260 260 258 259 259 259 257 257 258 258 257 257 254 256 260 265 263 268 273 275 275 275 275 275 275 274 270 269 269 269 269 269 267 265 265 265 264 265 265 265 264 264 264 263 263 262 261 263 261 260 259 258 256 255 254 252 250 250 249 250 251 251 250 250 250 250 250 250 251 252 254 255 256 257
260 261 259 257 259 258 258 258 259 264 259 258 258 260 258 257 257 257 257 256 258 258 256 254 261 257 257 258 265 263 265 271 273 272 271 269 265 264 264 264 264 264 264 264 264 263 263 263 263 262 262 262 262 261 261 261 260 259 259 258 256 255 259 257 258 252 250 249 248 248 250 250 250 249 251 250 250 250 251 253 252 252 254 255 255
259 264 265 265 264 260 258 258 259 258 257 258 257 257 257 256 255 255 255 255 255 255 256 253 253 255 256 255 254 258 263 262 263 265 264 262 262 262 261 262 262 262 262 262 261 261 260 260 260 261 261 261 261 260 260 259 257 256 255 253 252 250 252 250 250 249 249 249 248 248 249 249 248 248 250 249 250 250 250 252 252 252 252 252 252
260 260 264 265 262 262 258 258 257 256 256 255 254 254 255 255 255 255 253 253 254 254 254 255 255 254 253 252 254 255 258 257 257 258 260 261 261 261 260 260 260 260 259 259 259 258 257 255 255 257 258 257 257 256 254 255 254 253 251 250 249 249 249 247 247 246 248 248 248 248 248 249 248 248 247 249 249 249 250 251 252 252 252 251 252
259 260 261 263 261 259 257 256 255 254 254 254 254 253 254 255 255 254 253 253 254 254 254 253 251 250 253 261 266 265 256 254 254 255 256 257 257 259 259 258 257 256 256 256 256 256 255 254 253 254 254 253 251 251 251 250 250 249 248 249 248 249 248 246 246 246 247 247 248 247 247 248 248 248 248 249 253 253 252 252 252 251 252 251 250
258 258 257 256 258 256 255 254 254 256 254 255 252 252 254 254 253 252 253 253 254 254 253 252 251 250 258 266 267 268 260 258 258 256 255 256 258 258 258 257 256 254 252 253 253 253 253 252 252 252 252 251 250 249 248 247 247 246 246 247 247 247 248 248 247 246 246 246 247 248 247 248 249 250 251 254 250 250 250 250 250 249 249 249 249
256 255 255 255 254 254 254 253 252 252 252 252 252 256 255 252 252 253 253 253 253 252 252 252 252 251 254 263 263 263 257 257 258 256 255 257 258 257 256 256 255 254 253 253 253 253 253 252 251 252 251 251 250 249 250 249 248 247 247 247 248 248 248 248 247 248 246 247 248 248 248 248 251 249 248 249 249 248 247 247 248 247 247 247 248
255 255 254 254 253 253 253 252 253 252 252 254 254 253 253 252 251 251 250 251 251 252 251 251 252 251 250 253 255 253 250 250 249 250 252 254 256 256 256 255 253 251 251 250 250 249 250 250 251 251 250 249 249 247 247 247 247 247 248 248 248 249 248 248 249 248 248 248 248 248 248 247 249 248 248 250 246 246 247 245 247 247 247 246 247
254 255 254 254 252 253 251 251 252 252 253 252 251 251 252 250 251 251 251 250 252 251 250 250 251 250 251 249 248 249 248 249 251 251 250 250 251 252 253 251 250 250 251 250 249 247 247 249 249 249 250 249 247 247 247 247 247 248 248 249 249 250 251 250 249 248 248 246 248 247 246 247 245 245 246 246 246 246 247 246 246 250 249 248 247
253 253 254 253 252 252 251 250 252 250 250 250 249 248 248 248 248 250 251 251 251 250 249 250 249 249 250 249 249 250 249 248 247 248 249 248 249 249 249 249 249 250 250 251 249 247 248 248 249 249 249 249 248 246 246 245 246 247 246 247 250 250 249 247 245 245 246 246 247 245 246 246 245 246 248 245 245 246 246 245 245 247 247 248 248
252 253 252 252 252 252 251 251 249 249 248 249 249 249 248 248 248 250 251 250 250 250 249 248 248 248 248 248 248 247 248 249 248 248 248 247 247 247 247 248 250 250 251 250 249 249 248 248 249 249 249 248 247 247 246 245 244 245 247 247 248 248 246 245 244 245 245 244 246 244 245 246 247 246 248 249 247 248 248 248 247 247 247 247 247
252 251 251 251 251 250 249 249 251 253 249 249 249 249 249 249 248 248 247 248 248 249 248 248 247 246 248 247 248 247 247 247 247 248 247 248 247 248 248 248 249 250 250 249 249 248 248 247 247 247 248 248 248 247 247 246 245 245 245 246 245 246 246 249 244 243 244 243 244 245 245 246 245 245 246 246 246 246 247 248 247 247 247 248 249
251 251 250 250 250 250 249 249 250 248 248 248 249 248 249 248 248 247 248 248 248 248 247 247 245 246 246 246 247 247 247 248 247 247 247 248 247 246 247 247 249 250 249 249 250 249 248 247 247 247 247 247 247 247 247 246 246 245 245 244 247 251 251 251 249 245 248 246 244 245 243 244 244 246 247 246 247 246 247 246 245 247 247 248 249
250 250 250 250 250 248 248 247 246 245 247 246 245 247 248 248 247 248 247 247 247 247 246 246 246 246 246 247 247 247 247 247 247 248 247 247 247 247 246 247 247 248 248 249 249 249 246 244 244 245 246 246 247 246 246 246 246 247 245 246 251 252 252 252 252 251 250 244 245 244 245 245 245 245 246 246 245 246 246 247 247 248 248 247 247
251 250 249 249 248 248 246 245 244 244 244 244 244 245 247 246 245 246 247 246 245 246 246 244 245 245 246 246 247 247 247 247 248 247 248 248 247 246 247 246 247 246 247 247 248 247 246 244 244 245 244 246 246 246 246 247 246 246 248 251 252 252 253 253 251 252 253 250 244 245 245 246 245 245 245 245 244 244 246 247 247 247 247 248 248
Wind_Speed
12 11 10 9 10 11 11 9 9 8 9 9 10 9 8 7 7 6 6 6 6 7 7 8 7 6 5 5 6 7 7 7 6 7 8 8 7 8 7 6 7 5 5 5 3 4 5 6 4 3 3 4 4 4 4 4 3 4 4 4 4 1 3 3 5 8 4 0 2 2 2 3 4 3 7 6 6 6 6 5 7 7 8 7 8
10 10 10 10 12 11 11 9 9 8 9 9 8 8 7 8 7 7 7 5 6 7 8 7 7 6 6 5 5 4 5 7 7 7 9 11 9 6 7 8 7 6 5 5 4 4 5 6 5 4 3 4 4 4 5 4 4 4 3 4 4 3 2 5 4 3 6 1 4 2 1 2 5 3 6 10 9 7 7 6 5 5 7 7 7
10 9 10 11 11 10 10 10 9 10 11 9 8 7 7 6 6 7 7 6 5 6 8 8 8 7 6 5 5 5 5 6 6 8 10 11 10 8 7 9 9 9 7 7 6 5 5 5 5 5 3 4 4 4 4 4 4 4 3 2 3 2 2 2 3 4 6 5 2 1 2 3 4 7 7 6 7 7 8 8 7 6 5 6 7
10 10 10 10 11 11 11 9 11 10 10 8 8 7 6 6 6 7 6 7 8 6 7 8 8 7 7 6 6 6 7 6 6 6 8 9 9 9 9 8 8 8 8 8 7 7 7 6 6 6 5 5 4 5 4 4 5 4 4 3 3 4 3 2 3 4 3 5 2 2 4 6 4 5 6 6 6 6 7 8 6 5 5 5 6
10 10 10 12 11 11 11 10 10 10 9 8 8 7 7 8 7 8 7 7 7 7 7 6 7 7 8 8 8 8 7 7 7 7 6 6 8 8 9 8 8 8 8 7 7 7 7 7 7 6 6 6 4 5 5 5 4 4 4 4 4 4 3 4 4 4 5 7 7 3 3 4 5 6 6 7 8 7 5 7 6 6 6 6 5
11 11 10 11 11 12 11 10 11 11 10 9 9 9 8 8 8 6 7 8 7 7 8 7 8 8 7 7 7 6 6 6 6 7 8 7 6 6 6 7 7 7 7 6 6 6 7 6 6 7 7 7 7 5 5 6 4 5 5 5 4 3 3 4 3 4 5 6 5 7 3 6 7 4 4 4 9 12 10 5 4 4 7 8 6
11 11 11 11 11 12 11 11 10 10 9 9 8 8 8 8 8 8 7 8 8 9 8 8 6 7 6 6 7 6 7 6 6 7 7 7 8 8 7 6 6 6 6 6 5 5 5 5 6 7 7 6 6 7 6 5 6 5 5 5 4 4 4 4 4 4 4 5 4 4 6 5 5 8 5 4 6 6 9 12 14 6 3 4 10
12 11 11 10 11 12 11 10 10 10 9 9 9 8 8 8 8 7 7 8 8 8 9 8 6 5 5 6 5 5 6 6 6 6 8 9 9 8 8 8 8 6 5 5 5 5 5 5 5 6 6 6 5 5 5 6 4 4 4 4 4 4 5 4 4 4 4 4 4 5 5 7 6 5 4 5 6 3 3 7 12 14 12 8 6
12 12 11 12 12 11 10 9 9 10 10 10 10 10 9 8 8 7 7 7 6 6 6 6 6 6 5 6 6 6 6 6 6 8 9 7 8 9 8 8 8 8 6 5 4 4 4 4 5 4 5 6 9 7 7 6 6 5 5 4 5 5 4 4 4 3 3 3 4 5 6 7 7 7 7 6 6 8 8 8 9 10 10 12 10
13 13 13 12 10 10 11 10 11 10 11 11 11 10 10 9 9 9 8 7 6 6 7 7 7 7 7 6 6 6 5 4 6 11 9 10 9 7 6 6 7 7 7 6 5 5 5 5 5 8 9 9 10 11 11 12 11 8 7 6 5 5 5 5 5 4 3 4 4 4 7 7 7 7 7 7 6 8 9 9 10 11 10 11 10
13 13 13 12 11 11 11 11 11 12 12 10 9 11 11 10 9 8 8 7 8 8 8 9 8 7 8 7 8 6 5 5 11 13 13 13 9 8 7 6 6 7 6 6 7 6 5 5 4 6 7 9 9 12 12 13 14 14 14 12 10 9 6 6 5 4 4 4 5 5 7 8 8 6 7 8 6 8 8 8 10 11 10 10 13
12 12 12 11 11 12 11 11 11 12 11 11 11 10 10 10 10 10 9 9 8 6 8 8 8 7 7 7 7 7 6 8 14 14 14 14 12 8 5 5 5 7 7 6 5 5 5 5 4 4 5 6 4 5 8 13 15 15 15 15 15 15 13 10 7 5 5 5 6 7 6 7 9 8 7 5 8 9 7 8 9 10 10 10 9
12 11 11 11 12 11 11 12 12 11 10 10 10 10 11 10 10 11 12 9 7 9 10 9 9 8 8 9 8 8 7 11 14 14 15 15 15 10 5 5 6 6 7 7 6 5 5 5 5 5 5 9 7 5 5 5 9 13 15 16 16 16 16 17 15 10 7 8 8 7 7 4 6 6 4 8 10 9 6 6 8 9 9 10 10
11 11 10 11 11 10 10 10 10 10 9 10 10 11 11 12 11 9 8 8 9 9 8 9 8 9 9 10 9 8 8 10 15 15 15 16 15 12 5 6 5 5 7 7 6 6 6 6 6 6 5 5 5 7 6 7 7 6 6 5 5 7 12 16 17 18 14 8 6 7 5 4 7 4 6 9 7 5 5 6 7 9 9 10 11
10 10 11 10 10 10 11 11 10 10 11 11 11 11 11 9 10 9 9 10 11 12 11 11 10 10 9 9 8 8 7 13 15 16 16 16 16 11 6 6 5 5 7 6 6 6 5 6 6 7 5 5 6 7 7 8 5 6 6 7 6 7 7 7 7 5 6 6 7 6 6 6 6 7 10 6 5 5 4 7 9 10 9 8 8
11 10 11 11 12 12 13 12 12 12 11 11 11 12 11 11 11 9 8 7 6 5 6 7 10 10 10 9 8 9 7 15 15 15 16 16 16 8 6 8 7 7 7 7 7 6 6 7 7 7 6 6 9 15 12 7 6 7 9 7 7 6 7 8 11 11 9 8 8 8 7 6 9 8 7 6 6 5 5 4 3 5 7 9 10
12 12 11 10 10 10 11 11 11 10 11 11 11 11 11 10 9 7 8 8 9 10 10 11 9 9 10 10 10 9 8 12 16 16 16 17 13 7 7 7 7 8 8 8 7 6 7 7 7 6 6 7 10 14 16 14 7 9 8 8 8 7 8 6 13 17 19 19 18 18 17 17 18 15 13 15 11 9 5 5 7 2 5 9 12
12 11 11 11 11 11 11 10 11 10 10 11 11 9 8 7 9 8 10 11 11 12 9 7 7 8 10 11 12 10 9 12 18 18 18 18 14 9 7 7 8 8 8 7 6 7 8 13 10 8 8 8 12 15 16 14 9 10 9 9 9 10 10 8 7 9 17 19 19 18 17 14 7 6 8 9 13 10 2 8 4 1 6 4 9
11 12 12 10 9 9 9 9 10 11 11 11 11 11 11 11 9 8 8 7 8 6 7 8 8 7 9 10 8 11 10 11 18 19 20 19 15 9 7 7 9 9 8 8 7 7 7 10 17 14 11 10 16 16 18 15 10 10 10 9 10 12 10 7 8 8 7 7 6 3 1 2 2 1 4 8 10 8 3 5 1 3 7 7 7
9 7 7 8 9 10 10 11 11 12 12 11 9 10 8 7 8 8 8 7 7 6 7 7 8 8 7 9 9 10 9 7 9 18 17 17 18 10 7 8 11 11 9 9 8 7 8 8 11 18 19 18 17 18 18 20 13 10 9 10 10 14 6 7 9 8 8 9 7 4 4 2 1 2 4 5 5 3 4 4 4 4 6 6 6
8 9 9 9 9 10 9 11 12 10 10 10 9 7 7 8 8 9 9 7 7 6 7 7 8 8 6 6 6 6 6 6 5 12 14 16 18 17 9 11 11 9 8 8 9 9 8 8 7 14 19 19 19 19 20 21 19 11 11 11 12 9 7 8 9 14 8 6 5 5 3 2 2 2 2 3 4 3 3 5 5 5 6 5 7
9 8 9 9 9 9 9 8 9 9 7 8 8 8 7 8 8 8 6 6 7 7 6 6 7 6 4 4 5 6 5 6 5 9 14 16 18 21 12 11 9 7 8 9 9 9 10 8 7 11 18 19 19 20 21 21 22 13 12 18 19 20 14 10 7 6 5 6 5 5 4 4 4 4 4 5 5 5 4 5 6 5 5 6 6
8 9 8 9 9 9 9 10 9 7 8 9 9 9 7 7 6 7 7 7 8 8 8 6 6 6 6 6 6 6 6 6 10 9 13 17 18 18 19 11 12 9 10 13 13 10 8 7 7 13 18 19 20 20 20 22 19 16 22 22 22 22 18 6 6 6 6 6 5 6 5 5 5 6 4 5 3 3 5 5 6 6 6 6 7
8 8 8 8 8 8 8 8 7 7 8 8 8 8 7 7 7 7 7 8 7 8 7 6 6 7 8 8 7 7 6 6 9 13 11 16 17 18 19 21 19 10 9 12 10 8 8 8 8 14 17 19 20 20 20 19 15 20 22 23 23 20 9 6 6 7 6 6 6 6 6 5 4 5 5 4 3 4 5 5 5 5 6 6 7
8 8 8 8 8 7 6 7 7 7 7 9 8 8 7 7 7 5 7 7 7 8 7 7 8 8 7 9 9 7 6 6 6 8 14 15 17 18 20 21 20 20 13 11 9 10 10 13 15 17 17 19 21 20 18 20 22 22 23 22 19 10 5 7 7 6 6 7 7 6 5 5 5 5 2 2 2 3 3 3 3 4 5 6 7
8 8 7 7 7 7 7 6 6 6 7 7 8 8 10 9 8 7 7 7 7 8 8 7 8 8 9 9 9 8 5 4 6 6 7 10 12 17 20 20 20 19 18 15 14 15 18 20 22 21 20 18 13 11 10 10 17 21 22 21 11 5 6 7 6 7 8 6 6 6 5 3 2 2 1 1 1 4 3 3 3 5 4 4 5
7 7 7 6 6 7 8 7 6 6 6 5 6 7 7 7 7 8 8 8 8 8 7 8 8 8 9 10 8 5 5 5 5 4 5 6 7 7 9 11 14 16 13 11 12 13 15 14 12 16 14 20 20 18 16 15 13 13 10 9 5 6 6 7 8 8 6 5 5 5 3 2 1 1 2 2 4 3 2 3 3 5 4 4 4
8 7 7 7 7 7 7 9 9 7 7 7 7 6 6 7 9 10 11 10 9 9 8 8 9 10 10 8 6 5 7 5 6 7 7 6 7 7 7 7 7 8 9 9 9 10 10 10 13 10 10 10 11 10 9 9 9 8 7 6 5 3 5 6 4 3 4 4 2 2 1 2 2 3 2 2 4 4 2 3 2 4 3 4 3
6 6 6 6 6 5 6 7 7 7 6 6 5 6 9 9 9 7 4 6 8 9 9 8 8 7 6 6 6 7 7 8 8 7 9 11 10 8 8 9 8 8 12 15 10 9 8 9 9 10 9 9 9 9 8 6 5 5 6 4 4 3 4 5 6 6 5 4 5 5 5 4 3 2 2 2 4 4 1 2 4 4 4 3 5
6 6 6 6 6 6 5 6 5 6 7 7 6 1 2 4 5 5 5 4 9 9 7 7 5 6 7 7 8 10 10 4 5 11 14 15 17 18 16 15 14 11 12 17 12 9 9 8 9 9 10 9 9 9 6 5 5 4 4 4 4 4 3 4 5 4 4 5 4 4 4 3 4 3 4 4 4 2 3 4 3 3 3 3 5
6 6 6 6 7 7 6 6 6 6 6 7 6 6 2 0 2 6 7 6 7 9 12 12 11 11 9 7 7 13 14 12 12 11 11 13 15 16 16 17 17 16 16 9 8 9 7 8 8 7 8 7 8 8 5 5 5 5 5 5 5 5 5 5 6 4 3 3 3 3 2 4 5 4 5 4 3 3 3 3 3 4 4 4 5
7 6 6 6 6 6 6 6 6 6 5 5 6 6 5 6 5 3 6 8 10 11 12 13 13 13 15 12 7 4 9 12 12 13 13 14 14 15 15 15 16 16 16 16 9 7 5 6 7 6 5 7 7 5 6 6 6 5 4 5 6 6 6 7 3 4 4 4 4 4 4 5 5 4 4 3 4 3 3 4 3 4 4 4 5
7 6 6 6 6 6 6 6 6 6 6 6 5 5 7 6 7 6 3 5 9 11 12 12 13 13 13 15 15 11 9 9 12 13 13 13 13 13 14 15 15 15 15 10 8 6 5 5 6 6 5 6 6 6 6 6 6 6 6 6 6 3 4 2 3 4 4 4 4 5 5 5 4 5 4 5 4 4 3 4 4 3 4 4 5
6 7 7 6 7 5 6 6 6 6 6 6 6 6 6 6 6 5 4 5 3 4 6 10 12 12 13 13 13 14 14 14 13 13 13 12 12 12 12 10 13 14 12 7 7 7 6 7 8 8 7 7 7 6 6 6 6 6 5 3 2 3 3 3 3 3 3 3 4 4 3 4 4 3 5 3 4 3 5 5 3 3 4 4 5
5 6 8 7 5 6 5 5 5 5 5 5 5 5 5 4 4 5 5 5 5 4 2 3 6 7 6 7 10 12 12 13 14 13 13 14 13 12 12 8 6 5 6 5 4 6 7 8 8 8 7 7 7 6 6 4 3 3 3 3 2 2 3 3 3 3 3 3 4 4 4 4 4 5 4 4 4 5 5 4 4 4 4 5 5
6 5 4 5 5 5 5 5 5 5 5 5 3 3 2 3 4 2 1 1 2 2 3 2 2 6 9 7 7 7 8 10 12 12 7 6 9 14 7 5 5 5 6 7 7 2 3 3 3 3 2 1 2 2 2 3 3 3 3 3 3 3 3 3 4 4 3 4 4 3 2 2 5 4 3 3 5 6 5 5 5 4 4 5 5
6 5 4 4 4 5 4 3 4 3 4 3 5 3 3 3 3 2 2 1 1 1 1 3 5 6 4 3 4 5 6 5 4 5 7 7 9 4 1 1 3 2 0 1 3 3 3 3 2 2 2 2 2 2 2 2 2 2 3 3 3 4 4 4 4 5 3 3 3 3 3 5 5 4 4 5 4 5 5 4 4 5 5 7 6
5 5 5 4 5 5 5 5 4 5 5 4 4 4 3 2 1 1 2 1 0 0 2 2 2 1 2 5 4 4 5 6 4 4 7 8 7 5 4 3 3 1 1 2 2 2 2 1 2 2 2 2 2 1 2 2 2 2 3 2 2 3 3 3 3 3 3 3 3 4 4 4 5 4 4 5 5 4 5 5 5 5 4 6 4
5 6 7 6 5 5 6 5 5 5 4 4 3 4 4 3 1 1 1 0 0 0 1 0 1 1 3 3 4 4 4 3 3 3 3 3 3 2 3 2 2 2 2 1 1 1 1 0 0 1 0 1 2 2 2 3 2 3 3 3 3 2 2 2 2 2 3 5 4 5 5 5 4 4 5 4 5 5 5 4 4 4 5 5 5
6 5 6 8 6 5 5 6 4 5 6 4 4 3 3 2 1 1 1 1 0 0 0 1 1 2 2 1 1 1 1 1 1 2 2 2 2 2 2 1 1 1 1 2 1 1 1 1 1 1 0 0 1 2 2 3 3 3 3 4 4 4 5 3 3 3 5 5 4 3 4 5 4 3 3 5 5 4 5 5 4 4 4 4 4
6 5 5 5 6 6 6 6 6 4 4 4 4 4 3 3 2 2 1 1 0 0 0 1 1 3 2 2 4 2 3 2 2 1 2 1 2 2 2 2 2 2 1 1 0 0 0 1 0 1 1 1 1 2 3 3 4 3 3 3 2 3 2 3 4 4 4 3 5 4 4 5 4 3 5 5 5 5 5 4 5 4 4 2 3
6 6 6 5 6 6 6 6 6 5 5 6 4 3 4 4 2 2 2 1 1 1 0 0 1 1 3 4 4 7 5 3 2 1 1 1 1 2 1 1 1 1 1 1 1 1 1 1 2 1 2 2 2 2 2 3 3 3 2 2 3 3 3 5 5 4 4 4 4 5 4 5 5 5 5 5 5 5 5 5 5 3 3 4 4
7 7 6 6 6 5 6 5 4 6 4 5 4 3 4 4 3 4 2 3 1 2 1 0 0 1 2 5 6 7 4 3 3 1 1 1 1 1 0 0 1 1 1 1 1 1 2 2 3 2 2 4 3 4 4 4 4 4 3 3 4 5 4 4 3 4 3 4 5 4 5 4 5 4 4 4 3 3 3 3 3 3 4 3 4
7 7 7 7 7 6 6 6 6 5 4 5 4 5 5 4 3 3 3 1 1 1 1 1 1 1 2 5 5 4 2 1 1 1 0 1 2 2 2 1 1 2 2 2 2 1 2 3 3 3 3 3 3 2 2 2 3 3 5 5 4 4 5 4 5 4 5 5 6 5 5 4 4 5 4 5 2 3 5 3 4 4 3 4 5
6 7 7 7 6 7 6 4 5 5 6 6 5 4 5 3 3 2 2 2 3 2 1 1 1 1 1 1 2 1 1 0 1 1 1 1 2 2 2 2 2 3 3 3 1 1 1 2 3 3 3 3 3 3 4 4 3 5 4 5 5 6 6 5 6 5 6 4 5 4 4 4 4 5 5 4 2 3 4 4 4 4 4 4 4
6 6 7 7 7 7 7 5 6 4 5 5 6 4 3 3 2 2 3 2 2 1 1 1 1 1 1 0 0 1 1 0 1 1 3 2 3 3 2 3 2 3 3 3 3 2 3 4 4 4 4 4 4 4 5 4 5 5 4 4 5 6 6 4 3 3 5 5 6 4 4 4 3 4 5 4 3 3 4 4 3 4 4 4 5
6 6 6 7 7 7 6 6 5 4 5 4 3 3 2 2 2 2 4 3 1 3 1 0 0 0 0 0 1 1 1 1 2 2 3 4 3 3 3 2 3 3 3 3 3 3 4 4 4 5 5 4 4 5 5 5 4 4 4 5 5 5 4 4 4 4 4 4 5 4 5 4 5 3 5 3 3 4 4 5 5 5 5 5 4
6 7 6 6 6 7 4 5 5 5 4 4 2 3 3 2 2 2 2 1 1 1 0 0 0 0 1 1 1 1 1 2 2 3 3 4 4 3 3 2 3 4 3 3 3 4 4 4 4 4 5 5 4 4 4 4 4 4 4 4 5 5 5 5 4 4 5 4 5 5 5 5 4 4 3 4 4 4 4 5 4 4 5 4 6
6 6 6 6 5 4 5 4 5 4 3 2 2 2 3 1 1 1 1 0 0 0 0 0 1 1 1 2 2 2 2 4 3 3 4 4 4 4 4 3 3 3 3 4 4 4 5 4 5 5 5 4 5 5 5 4 5 5 4 4 6 8 9 7 6 5 6 6 6 5 4 4 4 4 4 3 5 4 5 4 4 4 4 4 4
6 5 5 5 5 4 4 5 4 4 4 3 3 1 1 1 1 0 0 0 0 0 0 1 1 2 2 2 4 3 2 4 4 4 4 4 4 4 3 4 4 4 4 4 4 4 4 3 4 4 5 4 5 5 4 5 5 6 5 5 9 11 10 11 10 9 7 5 6 5 6 5 4 4 4 4 4 4 5 5 5 5 5 5 5
6 6 5 5 4 4 4 6 4 3 3 2 2 1 1 1 1 1 1 1 1 2 1 2 4 3 3 4 5 4 4 5 5 5 5 5 5 4 5 4 5 4 4 4 5 5 4 4 4 4 4 4 4 5 4 5 5 6 7 10 11 11 11 10 7 9 10 7 5 5 5 5 4 5 4 4 4 4 7 6 5 5 5 5 5
Wind_Direction
176 177 168 174 166 170 168 166 167 163 164 174 174 173 165 160 161 153 139 166 155 150 145 140 139 144 151 164 170 168 161 155 153 140 127 127 120 126 128 126 126 130 126 123 136 134 133 132 137 138 144 137 135 124 117 124 115 118 133 132 129 130 144 189 218 275 293 244 124 261 310 313 310 298 307 309 309 306 302 291 291 292 296 292 296
183 172 175 170 172 173 172 167 164 165 169 172 176 170 163 162 153 141 162 155 157 152 144 140 141 149 160 172 182 176 171 160 152 141 138 127 123 136 139 137 137 143 145 152 155 147 141 138 147 155 169 146 142 142 148 145 147 143 161 141 156 166 213 168 246 259 276 269 299 298 259 299 298 305 319 320 319 314 310 307 292 282 288 292 294
178 173 175 174 176 172 167 170 165 169 170 174 174 166 160 148 143 152 156 155 154 155 148 145 148 152 161 175 181 181 180 166 160 147 143 141 143 149 154 151 151 156 162 168 163 150 143 150 165 165 162 144 155 156 152 165 165 165 170 156 161 207 204 193 162 248 277 289 203 263 287 310 304 314 315 300 296 303 308 313 310 297 279 283 287
178 174 176 176 172 168 174 168 168 171 174 172 169 162 154 146 143 152 157 157 159 151 144 146 150 159 166 180 187 184 182 172 158 158 146 145 143 142 139 139 139 165 167 167 162 162 161 159 178 170 164 157 166 162 172 168 177 175 170 193 183 204 205 200 220 212 266 295 268 5 307 319 304 300 293 293 297 310 311 302 293 288 285 284 287
175 177 177 173 173 173 173 170 172 173 171 165 167 156 155 151 155 161 156 162 162 149 143 145 156 166 178 187 188 189 183 165 155 148 148 144 143 151 151 148 152 157 173 167 166 166 171 178 177 172 168 166 180 177 178 181 185 176 186 197 196 207 205 208 221 243 251 269 289 284 286 294 292 295 299 318 318 314 300 294 307 308 305 296 285
177 173 177 176 175 177 175 172 176 172 167 164 166 163 160 159 158 158 163 163 160 159 154 162 172 176 183 188 189 182 170 171 171 161 140 139 139 139 154 150 145 164 169 171 169 178 177 182 179 176 176 182 191 185 183 187 182 190 198 207 202 202 209 225 227 228 247 260 270 299 316 320 316 308 309 324 330 322 319 299 281 288 308 313 314
175 176 178 178 176 181 177 176 172 168 166 164 161 163 164 159 161 166 168 168 167 165 164 165 174 178 184 179 187 181 177 177 170 162 150 132 119 137 145 157 170 170 174 174 177 180 182 183 184 186 190 193 186 189 184 189 188 203 203 201 206 196 217 224 226 238 244 266 273 266 293 296 303 312 326 337 307 297 316 328 322 313 261 317 326
176 177 176 181 182 181 176 168 168 167 164 160 164 165 161 161 165 161 161 171 175 171 168 171 170 171 180 181 183 174 180 176 173 161 132 131 130 142 152 168 166 173 170 178 180 186 188 193 193 197 198 197 190 190 180 190 185 205 209 193 206 201 217 224 231 233 245 262 273 291 292 304 303 289 305 320 308 293 331 324 311 318 325 332 337
176 178 178 183 186 176 165 164 166 165 166 163 165 166 164 160 157 158 171 175 173 166 156 157 158 167 175 183 179 182 187 187 178 164 153 142 136 144 167 175 170 163 164 182 190 190 198 199 203 201 204 204 204 195 193 185 176 203 216 192 206 204 217 222 221 231 257 267 277 280 295 303 304 312 319 322 321 321 323 313 298 309 317 316 320
177 180 183 186 178 169 167 167 168 167 167 172 171 163 161 160 161 165 174 171 161 160 156 158 170 177 178 184 184 189 194 187 184 172 163 155 155 158 175 193 184 160 167 188 200 204 206 204 209 208 210 212 217 218 215 214 208 194 197 191 198 200 208 209 224 229 236 253 261 280 292 289 300 308 306 302 312 317 308 313 313 316 316 306 298
182 182 185 182 174 168 169 173 168 172 175 168 163 164 164 164 164 164 165 168 169 167 167 171 176 179 184 185 188 193 192 184 185 179 173 174 171 175 190 192 176 167 190 195 206 205 209 210 210 220 220 221 222 224 224 224 226 221 214 205 195 188 192 204 219 205 210 244 257 256 261 281 296 303 295 305 311 309 309 312 316 317 319 326 320
186 187 184 176 173 173 175 170 171 175 170 170 167 166 162 162 167 169 167 169 176 166 172 181 180 183 184 189 194 194 194 193 191 187 184 185 182 185 190 191 187 188 187 204 211 202 209 214 220 210 224 222 211 227 232 231 231 233 236 235 231 219 204 190 201 213 218 238 249 247 267 277 293 298 299 312 307 305 299 309 312 310 308 306 301
186 186 181 178 178 175 172 172 175 173 172 167 166 165 167 168 168 171 179 176 159 172 186 180 187 184 187 191 198 198 198 195 194 191 192 194 191 182 192 193 192 206 182 211 211 207 202 217 229 223 219 222 219 212 217 241 244 237 237 239 238 237 237 233 225 215 210 231 242 251 254 275 283 280 292 300 301 295 307 307 308 299 294 291 292
187 184 177 180 175 172 169 170 173 171 167 167 166 170 172 180 177 172 163 160 176 182 184 188 185 189 192 196 200 198 196 196 196 195 198 200 197 187 187 195 192 181 200 210 209 206 205 211 222 232 213 210 215 209 211 218 224 237 246 254 254 259 247 241 242 242 240 240 249 257 256 250 265 278 291 292 290 294 304 302 307 294 288 284 295
182 179 180 177 171 168 168 170 171 171 175 173 170 172 174 172 175 175 172 179 182 187 187 188 194 193 196 198 199 198 199 197 198 198 202 203 204 193 171 174 199 213 209 212 210 203 207 212 222 228 218 213 217 209 205 212 210 223 232 239 239 235 239 243 243 236 239 243 249 257 259 232 238 265 280 269 272 294 306 302 301 294 295 296 282
183 181 183 181 178 175 173 174 175 175 172 171 173 176 177 178 177 174 176 182 186 183 200 197 197 196 196 194 196 204 202 197 200 201 204 206 205 197 170 195 209 212 217 213 209 203 202 212 219 226 220 220 224 226 220 202 210 217 231 241 243 244 241 234 236 237 231 228 229 238 238 223 233 247 256 267 304 316 305 306 299 303 318 304 292
187 187 186 180 180 176 175 174 174 170 172 174 178 177 176 178 176 167 178 186 188 195 199 201 198 193 194 195 199 208 201 198 200 204 206 207 204 204 190 201 211 214 222 212 208 204 202 207 216 220 223 225 223 229 230 220 205 218 225 233 235 239 245 238 247 246 244 243 241 241 250 257 266 280 288 293 298 309 326 308 283 343 323 306 299
186 181 181 180 180 176 175 173 172 172 171 178 179 181 177 179 183 176 185 188 198 203 200 199 200 198 196 200 203 203 204 200 202 205 207 206 205 206 199 200 217 219 225 218 206 209 210 215 215 218 223 228 227 229 229 227 217 212 217 227 234 239 243 232 230 239 245 246 246 250 262 272 290 319 314 300 294 302 317 280 286 1 277 260 283
181 185 184 174 166 162 164 166 170 172 178 183 180 182 186 188 184 180 195 196 204 185 189 199 203 204 206 208 198 204 213 205 205 207 206 206 205 204 196 204 221 227 221 228 215 210 216 220 228 228 226 228 230 229 229 226 227 220 218 223 234 239 236 218 225 220 225 234 247 239 250 142 76 40 283 291 301 310 284 266 245 230 265 268 277
178 166 155 159 164 167 170 173 177 179 183 182 182 188 178 167 171 179 188 193 193 188 192 200 207 213 206 209 214 215 219 218 211 214 211 208 208 202 198 203 224 227 222 225 225 226 218 216 227 231 234 233 230 230 231 230 227 223 216 226 233 244 226 224 223 216 218 212 218 196 206 170 179 251 262 276 286 260 246 232 227 218 240 257 264
159 160 161 162 167 172 173 176 179 183 182 180 174 168 167 175 172 178 186 188 188 191 190 199 211 219 207 212 216 229 224 228 225 220 219 215 214 212 209 217 224 224 225 228 228 230 227 221 216 225 231 235 236 236 235 234 235 226 218 223 230 240 237 232 226 226 213 197 182 179 193 201 219 224 257 260 268 241 230 256 234 241 243 241 262
154 156 160 166 167 169 172 175 177 174 165 154 159 175 180 175 178 176 172 175 185 196 196 201 210 224 222 216 216 227 226 221 218 225 225 224 223 220 220 224 216 214 231 237 234 234 232 222 215 218 226 233 237 241 241 240 237 236 229 231 237 241 243 236 213 194 171 189 177 190 209 229 242 244 257 260 236 247 238 239 245 243 241 233 233
153 156 158 160 167 170 172 169 170 163 164 168 168 173 164 163 164 161 164 174 186 197 202 199 205 223 234 237 228 226 222 224 221 221 228 232 235 236 235 233 211 208 219 238 237 236 235 223 219 215 226 231 235 238 241 242 242 242 243 243 243 243 245 207 163 173 180 186 189 206 216 215 240 248 244 255 230 224 232 237 241 245 251 249 253
147 151 159 165 164 167 169 167 161 159 161 160 164 159 164 167 165 172 172 177 186 199 207 198 208 223 231 241 235 228 218 212 224 224 224 231 238 240 243 244 235 216 215 239 244 239 231 223 216 217 225 233 236 239 244 245 243 245 246 246 246 248 236 156 174 184 183 188 202 218 222 214 230 255 241 224 210 230 242 250 256 259 261 264 264
144 153 160 162 164 161 153 157 161 162 161 159 162 165 163 159 167 177 172 184 189 199 207 196 210 222 229 239 244 233 211 206 214 222 228 231 233 237 241 243 247 244 237 238 236 238 234 228 225 225 231 238 238 245 247 247 246 246 246 246 246 237 177 172 183 171 188 204 211 224 229 221 229 244 230 199 226 255 265 274 279 276 269 268 264
150 158 156 156 154 146 147 151 157 162 162 169 173 172 169 173 177 175 179 193 193 199 207 199 213 219 230 239 241 238 210 198 212 212 221 234 237 238 240 243 245 247 252 259 247 233 237 239 239 236 235 234 233 232 233 233 242 247 248 248 241 202 169 182 176 189 206 206 209 220 225 202 182 198 201 220 228 257 261 266 291 291 289 288 293
146 148 151 142 139 148 152 160 158 158 163 164 167 164 165 170 173 175 185 192 198 203 206 205 213 219 231 240 243 243 234 222 215 208 211 220 233 241 248 251 251 251 252 254 265 265 258 246 232 232 228 228 226 226 229 234 240 243 241 240 212 183 184 183 192 196 204 199 215 219 212 159 91 122 233 220 254 262 235 253 264 270 291 290 289
150 153 149 147 153 158 159 160 159 164 173 169 168 168 173 175 181 190 190 192 192 206 202 210 213 218 228 236 244 255 250 237 220 211 213 208 223 222 230 238 238 238 246 253 253 253 256 257 252 243 235 235 233 230 229 220 223 225 223 215 195 183 190 188 168 168 190 193 179 125 135 155 208 215 224 227 251 264 238 240 233 268 261 277 285
132 136 140 142 151 159 155 162 168 165 170 178 189 180 177 186 196 211 216 185 197 195 199 214 220 222 219 224 219 249 250 242 236 203 206 204 205 208 220 222 225 228 232 238 248 256 255 252 246 245 235 234 231 231 227 218 224 221 220 202 157 153 175 174 196 204 200 179 205 210 225 188 227 202 221 250 253 258 238 238 263 242 262 230 254
127 139 142 143 145 145 145 150 153 157 163 172 168 196 354 181 201 191 212 191 202 218 195 210 201 191 210 226 199 219 241 232 188 206 214 218 222 222 221 221 221 225 234 241 240 249 246 243 244 239 241 239 238 238 232 217 219 212 221 208 197 194 182 210 220 221 190 206 207 195 220 198 236 221 229 241 273 263 252 248 256 250 256 254 267
125 134 140 147 155 151 146 146 153 151 155 161 166 174 204 337 230 212 198 196 204 213 223 228 216 199 196 233 231 234 250 258 255 253 246 237 236 238 243 244 244 243 242 239 243 243 248 246 249 243 247 247 246 246 222 212 216 214 218 207 214 208 213 214 224 215 194 185 194 200 209 206 238 222 225 240 249 270 259 250 235 241 232 253 263
144 155 149 148 146 149 148 145 145 141 140 141 157 166 176 204 281 272 220 213 217 220 224 229 232 234 227 224 216 243 255 257 256 259 259 258 259 257 258 258 258 257 254 245 239 238 244 258 264 255 249 247 251 250 244 240 236 221 210 209 220 206 211 227 194 146 177 184 198 204 204 218 224 223 219 231 240 247 245 262 251 250 257 241 249
134 141 143 141 139 138 142 144 153 152 155 153 160 162 170 187 204 245 271 241 230 233 235 235 240 244 248 253 253 243 224 219 239 252 260 261 262 264 263 262 260 258 258 251 238 239 216 236 255 263 245 244 244 237 240 239 239 238 232 235 238 193 185 183 137 155 177 198 173 203 209 215 213 214 219 226 234 252 256 259 259 258 260 275 275
136 147 152 151 141 148 151 156 155 169 164 166 166 170 190 184 203 196 219 273 310 292 265 254 253 254 258 259 261 264 268 267 259 251 246 251 259 262 263 261 258 253 247 240 237 234 217 215 229 234 236 236 234 227 228 225 226 228 227 212 152 100 117 118 141 172 173 200 199 202 203 208 200 214 239 231 238 244 257 259 254 262 272 253 270
104 114 129 133 144 153 155 152 153 150 153 163 168 177 190 192 181 184 198 212 232 240 286 323 327 318 298 282 272 276 275 271 271 271 270 254 243 245 257 256 244 236 242 252 230 227 227 226 225 228 224 228 229 222 225 211 191 187 189 171 138 140 120 147 166 171 179 190 197 213 208 210 218 217 222 233 247 250 250 253 250 242 252 272 269
111 118 122 122 122 133 151 150 155 158 167 171 163 160 136 143 161 184 165 188 209 259 303 309 296 324 324 327 333 325 296 274 274 275 285 305 262 241 240 236 227 218 216 226 237 228 68 50 42 38 37 53 65 93 131 147 170 174 164 161 173 158 160 164 181 190 202 189 208 219 211 220 220 223 216 226 231 242 253 254 255 256 255 261 261
115 121 122 119 119 110 108 103 108 111 111 108 116 108 111 119 115 112 127 164 229 305 257 314 342 332 351 358 341 321 351 46 37 59 57 46 32 24 318 259 256 278 302 25 31 60 76 65 56 63 63 77 75 86 95 112 116 129 159 153 158 160 185 183 190 185 178 199 225 223 217 226 220 216 197 227 245 235 245 248 248 253 257 266 277
106 114 117 113 105 105 101 101 108 101 97 103 103 112 113 111 112 118 137 152 182 202 305 319 337 298 288 283 3 14 329 329 346 42 56 37 26 21 26 24 21 28 37 43 45 66 83 94 79 81 77 94 112 105 109 130 137 135 146 137 152 188 196 190 210 175 188 200 214 217 215 228 218 216 212 218 234 239 246 246 245 252 265 274 276
94 106 111 112 108 112 119 115 108 104 100 97 101 109 111 110 95 98 95 100 83 45 31 342 301 281 274 303 327 336 15 342 343 320 13 51 42 40 51 26 26 30 11 25 22 30 65 96 86 62 167 123 148 150 159 157 145 159 145 146 168 190 234 213 221 215 193 208 222 213 209 221 217 211 207 214 240 235 243 245 251 250 264 265 260
102 95 97 98 89 94 94 101 101 98 104 107 91 91 98 94 126 125 121 121 202 151 295 261 291 281 298 28 330 27 39 322 333 318 340 345 65 20 31 48 29 57 14 339 5 16 21 27 12 331 346 312 156 162 156 150 164 163 156 165 170 199 218 208 210 196 214 212 214 217 210 222 224 216 216 223 232 236 237 246 245 248 247 253 264
102 97 92 87 100 94 83 81 85 97 96 90 111 104 107 111 112 113 111 117 119 83 351 287 272 282 277 285 300 236 163 212 250 344 340 337 5 40 15 52 84 53 43 66 354 298 232 255 245 212 253 199 175 150 154 142 143 146 168 180 175 208 217 209 203 208 214 208 216 215 217 215 212 193 226 234 233 234 234 238 245 247 257 275 283
99 94 86 86 88 94 94 85 91 86 92 97 87 101 104 107 106 109 104 109 98 109 104 6 292 279 303 339 324 17 75 80 87 84 50 48 39 37 69 67 105 134 155 190 186 215 246 254 271 232 243 233 180 168 139 153 162 169 173 180 202 216 227 231 215 211 200 210 215 216 217 212 207 210 221 230 226 235 250 251 251 256 264 271 277
93 93 95 86 79 81 97 106 99 92 82 85 89 91 102 103 101 113 109 118 132 133 126 80 311 19 10 16 37 52 61 57 63 60 65 47 32 11 111 192 229 211 205 241 240 205 238 257 277 271 249 236 212 191 181 192 180 188 191 211 217 222 232 237 225 220 212 215 222 223 216 218 219 215 217 229 240 242 250 257 270 269 272 278 273
95 93 88 87 90 85 83 90 84 88 100 101 104 96 97 96 94 95 103 102 104 96 106 103 83 53 21 10 34 57 74 67 67 79 6 307 268 270 272 240 281 294 278 275 258 191 209 238 259 270 272 263 245 231 217 205 176 190 202 212 222 226 227 233 231 227 212 214 222 220 219 213 216 215 229 236 221 237 256 256 258 260 266 260 255
99 97 99 89 81 86 78 79 96 100 95 89 78 74 73 87 93 94 101 107 93 88 89 93 82 87 71 18 40 63 67 119 300 351 285 257 267 278 277 266 245 259 273 274 248 194 205 227 243 254 269 269 256 242 248 239 218 219 213 204 216 230 230 223 227 220 207 206 218 218 213 207 216 215 224 232 219 227 247 245 248 264 267 263 260
97 99 95 99 95 91 92 85 87 88 92 97 103 88 80 80 93 102 98 93 90 110 95 82 102 116 124 4 299 36 328 357 271 257 267 271 257 256 244 241 244 239 243 250 240 203 224 215 227 230 241 247 245 241 237 230 224 220 218 217 219 231 230 223 213 194 199 201 210 210 214 212 220 213 220 215 221 222 234 253 248 244 244 256 256
93 96 101 102 105 102 99 102 96 93 93 94 96 107 92 96 92 77 80 97 109 112 112 153 146 245 242 250 271 281 280 265 262 262 257 264 266 259 258 252 261 266 260 253 243 233 235 236 230 229 237 243 239 240 239 233 228 232 229 227 232 237 242 227 206 202 207 207 198 188 204 210 226 225 228 224 218 223 234 241 236 244 241 242 247
97 95 97 103 102 102 101 98 98 95 93 95 101 102 111 98 92 102 107 106 96 114 146 216 256 255 308 295 284 264 265 265 263 264 268 267 272 274 267 257 251 256 263 262 250 241 236 239 238 234 239 243 242 248 247 241 238 234 235 234 229 229 225 219 216 216 209 192 187 197 195 207 222 221 218 213 224 225 235 247 247 252 250 250 253
95 98 99 97 99 110 118 114 112 118 128 126 107 102 100 106 115 124 126 129 158 176 183 253 288 307 280 272 260 263 255 262 265 269 262 262 260 264 260 259 259 257 247 253 245 238 233 233 234 234 236 243 242 245 250 244 243 239 237 231 230 233 230 217 215 216 201 195 194 189 188 195 208 221 218 218 223 219 231 247 243 248 253 254 254
93 97 102 102 105 107 103 103 115 125 120 122 128 127 131 131 133 151 177 160 260 236 268 237 235 246 240 258 259 254 249 250 253 252 251 252 252 249 253 252 252 250 246 252 254 249 247 240 237 244 241 240 241 242 241 243 243 239 238 232 238 239 236 231 225 212 196 193 189 186 184 195 201 213 215 217 217 222 231 238 237 239 243 248 249
97 96 97 104 110 111 114 114 118 121 129 133 136 147 157 176 200 202 187 222 225 252 245 233 240 242 242 233 237 244 248 248 245 244 248 247 248 242 241 243 248 252 256 259 265 264 259 258 255 247 247 248 246 247 245 244 244 240 240 242 244 242 239 234 226 222 210 186 174 172 176 190 201 210 217 213 211 216 231 236 237 234 240 240 247